Location: Warszawa
(52.2500°N, 21.0000°E)
Time: 14:38:13
(UTC+02:00)

Vanguard 2 - Pass Details

Date: 10 February 2023
Orbit: 553 x 2927 km, 32.9° (Epoch: 27 March)

Event Time Altitude Azimuth Distance (km) Brightness Sun altitude
Rises 01:44:39 0° 267° (W) 6,232 - -45.9°
Reaches altitude 10° 01:50:37 10° 251° (WSW) 5,511 - -45.3°
Maximum altitude 02:00:06 18° 217° (SW) 5,085 - -44.3°
Drops below altitude 10° 02:09:53 10° 183° (S) 5,673 - -43.1°
Exits shadow 02:15:39 - 168° (SSE) 6,385 12.0 -42.5°
Sets 02:16:18 0° 166° (SSE) 6,476 12.1 -42.4°
